Starlink 30169

operational
NORAD ID: 57499 Int'l Des: 2023-113 Owner: SPXS Country: US Constellation: starlink
LEOCIRCULAR

About Starlink 30169

Description loading...

Live Position

Loading 3D Globe...

Upcoming Passes

Altitude History

Altitude vs Time

uPlot chart will show altitude changes over time

Two-Line Element Set

1 57499U 23113E 25260.23398906 -.00002748 00000-0 -18856-3 0 9993
2 57499 43.0033 227.5001 0001555 261.3567 98.7099 15.02513960117555
Epoch: Sep 17, 2025 • Age: 32 hours

Current Status

Altitude 565.4 km
Velocity 7.58 km/s
Sub-Earth Point -27.13°S, 10.63°W
Launch Date Aug 7, 2023
Age 2.1 years
Type internet

Technical Details

Classification Payload
Mass 730.00 kg
Dry Mass 700.00 kg
Total Mass 730.00 kg
Length 0.30 m
Diameter 4.10 m
Span 29.00 m
Shape Box + pan
Manufacturer SPXS
Bus Type Starlink V2M
Phase Status In Orbit
Owner/State SPXS/US

Large Constellations

Loading constellations...